"Pseudo-MPEC" for P11dcTx

Created 2021 Mar 4 15:07:10 UT using Find_Orb

Click here for an explanation of pseudo-MPECs

 
 Astrometry: 
     P11dcTx  C2020 12 22:\X9?;slAstrometry5$,9Ji:l/77(UqwoAWn9Y*rLJgE@Y4D?(HF51
     P11dcTx  C2020 12 22.B:qY,i#Q_s,*@c+lj/YiO9$M2,uuN5lauF*yxiL*pV^jsi\cR;SF51
     P11dcTx  C2020 12 22[.W.u=)pksb,n/kGaZsE*))t#M0f%s;4*I/G-YlBSN+Dvl$I7cStF51
     P11dcTx  C2020 12 22]0GHv'NJB.EVR_2'U;fSk2X:IuGD2WEZ.L.XHKfnQv6S3r.N8?KNF51
     P11dcTx  C2021 01 18.41187 09 50 44.33 +17 53 56.8    ~2IIM 21.9 GVNEOCPG96
     P11dcTx  C2021 01 18.42210 09 50 44.06 +17 53 55.3    ~2IIM 21.9 GVNEOCPG96
     P11dcTx  C2021 01 18.42721 09 50 43.95 +17 53 55.6    ~2IIM 21.6 GVNEOCPG96
     P11dcTx  C2021 01 233NI[L[8rxJXGOyoZOoK(\wkd5-]`[K5*,a?x3[y2`135d\J:QuvhF51
     P11dcTx  C2021 01 23rg,-NjH/o]m!x3S2n,D.r1x\mHPDCMfonsC=$,2ag:gtL[[pDS'BF51
     P11dcTx  C2021 02 06iNDtLgG96ofll]qyIXSjr@dx!EHyR)ABWe*,=CBfc5redacted;YF52
     P11dcTx  C2021 02 06F`XI19kQ#i,#8`UA[QyGG]-*+isiYv8QaQvl.@ReX8uStL,uNi\lF52
     P11dcTx  C2021 02 12I@Ql9o5LEM$`XRAt_,,Q'`%.FT6jk\m14`%]OQ)#/i5dv0^5=kfxF51
     P11dcTx  C2021 02 12+F`+vuk3C#G](*23giCW%a-5EB,6.+uTE'/vV/yWV\9:o'(^J9=eF51
     P11dcTx  C2021 02 12FS0h9!Pxv_D#n@ZHOYZ_psSeT[#XNACtNTAUm@QR/^CHgV(LVYkdF51
     P11dcTx  C2021 02 12;oCCjfr@Z9O'3[3clickQD35g6VCr\p(;m10jTTVLQa@Zh-;V__CF51
     P11dcTx |C2021 02 15N3+J,A@h]55H%#T\O5gj/GY=i!2P)F5-,V'NndCsKY#`FmoH1eo3807
     P11dcTx |C2021 02 15g\=J(,Whb80UZ'qXB7W(8Kw`+/K!vl7mq?y(a;AWLvlSGJ-D;eL-807
     P11dcTx |C2021 02 15j$heremugrP=?g06`/rGJm%PCq)ku756;Dl?kg,r#]_3MFByGGmL807
     P11dcTx KC2021 02 15.21085309 35 56.48 +17 54 58.3    ~2F67 20.65GVNEOCPI52
     P11dcTx KC2021 02 15.22629109 35 56.04 +17 54 58.1    ~2F67       VNEOCPI52
     P11dcTx KC2021 02 15.23425009 35 55.68 +17 54 58.4    ~2F67 20.99GVNEOCPI52
     P11dcTx KC2021 02 17.39047 09 34 42.13 +17 54 38.7    ~2HB7 21.3 RoNEOCP291
     P11dcTx KC2021 02 17.41970 09 34 41.08 +17 54 36.9    ~2HB7 20.8 RoNEOCP291
     P11dcTx KC2021 02 17.43633 09 34 40.56 +17 54 37.8    ~2HB7       oNEOCP291
     P11dcTx  C2021 02 19.29593309 33 37.44 +17 54 15.7    ~2K7M 21.32GVNEOCPG96
     P11dcTx  C2021 02 19.30157609 33 37.17 +17 54 15.7    ~2K7M 21.02GVNEOCPG96
     P11dcTx  C2021 02 19.30721909 33 36.99 +17 54 15.0    ~2K7M 20.82GVNEOCPG96
     P11dcTx  C2021 02 19.31291509 33 36.83 +17 54 15.5    ~2K7M 20.63GVNEOCPG96
     P11dcTx |C2021 02 19w6w['Lrp=N2;@+,alJYoas)h?%hf[m$qD_Sq1I4_5)YA5@3:T(UMH06
     P11dcTx |C2021 02 19eDFE2fKG3)rXBK)SOqldK_iFL)/for9't]'?IGEp[Nh9qnvJCm=aH06
     P11dcTx KC2021 02 22mB!\hM@B\3#1p**sROCg$eZOYVSVIJrpms,[FX]9[nc@x\L(%9`kN51
     P11dcTx KC2021 02 22s5$Oh[R9S`L.uL5S/(5#lUVN'8.@xSm3WvexplanationUlNHEP.N51
     P11dcTx KC2021 03 03.16888 09 27 04.25 +17 49 34.2    ~335M 21.0 RoNEOCP691
     P11dcTx KC2021 03 03.18286 09 27 03.81 +17 49 33.1    ~335M       oNEOCP691
     P11dcTx KC2021 03 03.19684 09 27 03.35 +17 49 32.5    ~335M 21.3 RoNEOCP691

Station data:
(291) LPL/Spacewatch II  (N31.961669 W111.599905)  US/Arizona.  Observers J.
   V. Scotti, R. S. McMillan. 1.8-m f/2.7 reflector + CCD.
(691) Steward Observatory, Kitt Peak - Spacewatch  (N31.962174 W111.600327)
   US/Arizona.  Observer J. V. Scotti. 0.9-m f/3 reflector + CCD.
(807) Cerro Tololo Observatory, La Serena  (S30.169136 W70.805900)  Chile.
(F51) Pan-STARRS 1, Haleakala  (N20.707235 W156.255910)  US/Hawaii.
   Observers N. Primak, A. Schultz, S. Watters, J. Thiel, T. Goggia. Measurer
   PS1 Science Consortium. 1.8-m Ritchey-Chrétien + CCD.
(F52) Pan-STARRS 2, Haleakala  (N20.707384 W156.255910)  US/Hawaii. 1.8-m
   Ritchey-Chrétien + CCD.
(G96) Mt. Lemmon Survey  (N32.442754 W110.788720)  US/Arizona.  Observers T.
   A. Pruyne, B. M. Africano, E. J. Christensen, G. A. Farneth, D. C. Fuls,
   A. R. Gibbs, A. D. Grauer, H. Gröller, J. A. Johnson, R. A. Kowalski, S.
   M. Larson, G. J. Leonard, D. Rankin, R. L. Seaman, F. C. Shelly. 1.5-m
   reflector + 10K CCD.
(H06) RAS Observatory, Mayhill  (N32.903325 W105.528700)  US/New
   Mexico.  Observers E. Guido, G. Sostero, V. Gonano, L. Donato.
(I52) Steward Observatory, Mt. Lemmon Station  (N32.442547 W110.788920)
   US/Arizona.  Observers T. A. Pruyne, B. M. Africano, E. J. Christensen, G.
   A. Farneth, D. C. Fuls, A. R. Gibbs, A. D. Grauer, H. Gröller, J. A.
   Johnson, R. A. Kowalski, S. M. Larson, G. J. Leonard, D. Rankin, R. L.
   Seaman, F. C. Shelly. 1.0-m reflector + CCD.
(N51) GROWTH India Telescope, IAO, Hanle  (N32.779244 E78.964610)  India.

Orbital elements:  P11dcTx
   Perihelion 2023 Feb 10.341945 +/- 0.474673 TT =  8:12:24 (JD 2459985.841945)
Epoch 2021 Mar  3.0 TT = JDT 2459276.5   Ju: 0.7396           AutoNEOCP
q   3.23886410 +/- 0.00217663       (J2000 ecliptic)
H   13.1  G 0.15                    Peri.  270.91530 +/- 0.0052417
                                    Node   323.68804 +/- 0.0032082
e   1.0014556 +/- 0.00149664        Incl.   50.81941 +/- 0.0362601
From 35 observations 2020 Dec. 22-2021 Mar. 3; mean residual 0".44
Residuals in arcseconds: 
201222 F51  .08+  .11-    210212 F51  .16-  .05+    210219 G96  1.2+  .27+    
201222 F51  .22+  .27-    210212 F51  .05+  .03-    210219 G96  .14+  .35+    
201222 F51  .34-  .17+    210212 F51  .06-  .03+    210219 G96  .34+  .28-    
201222 F51  .01-  .06-    210215 807  .16-  .21-    210219 G96  .86+  .30+    
210118 G96  .46-  1.4+    210215 807  .04+  .29-    210219 H06  .18-  .14+    
210118 G96  .17-  .18-    210215 807  .15+  .37-    210219 H06  .10-  .28-    
210118 G96  .32+  .10+    210215 I52  .51-  .16+    210222 N51  .51-  .65-    
210123 F51  .17+  .13-    210215 I52  .83+  .06+    210222 N51  1.7-  .38+    
210123 F51  .31+  .14-    210215 I52  .38-  .42+    210303 691  .13+  .72+    
210206 F52  .03-  .32-    210217 291  .19+  .38+    210303 691  .31+  .09+    
210206 F52  .17-  .26-    210217 291  .40-  1.1-    210303 691  .21+  .04-    
210212 F51  .04+  .11-    210217 291  .35+  .04+    

Ephemerides (geocentric):
Date (UTC) HH   RA              Dec         delta   r     elong  mag " sig PA
---- -- -- --  -------------   -----------  ------ ------ -----  --- ---- ---
2021 03 04 15  09 26 18.031   +17 48 40.83  6.0404 6.9467 154.2 21.6 .206  95
2021 03 04 16  09 26 16.719   +17 48 39.25  6.0404 6.9464 154.2 21.6 .208  95
2021 03 04 17  09 26 15.407   +17 48 37.66  6.0404 6.9462 154.1 21.6 .209  95
2021 03 04 18  09 26 14.096   +17 48 36.07  6.0404 6.9459 154.1 21.6 .210  95
2021 03 04 19  09 26 12.786   +17 48 34.48  6.0405 6.9456 154.0 21.6 .212  95
2021 03 04 20  09 26 11.475   +17 48 32.88  6.0405 6.9453 154.0 21.6 .213  95
2021 03 04 21  09 26 10.166   +17 48 31.28  6.0405 6.9450 153.9 21.6 .215  95
2021 03 04 22  09 26 08.857   +17 48 29.68  6.0405 6.9447 153.9 21.6 .216  95
2021 03 04 23  09 26 07.548   +17 48 28.07  6.0405 6.9445 153.8 21.6 .217  95
2021 03 05 00  09 26 06.240   +17 48 26.46  6.0405 6.9442 153.8 21.6 .219  95
2021 03 05 01  09 26 04.932   +17 48 24.84  6.0405 6.9439 153.7 21.6 .220  95
2021 03 05 02  09 26 03.625   +17 48 23.22  6.0406 6.9436 153.7 21.6 .222  95
2021 03 05 03  09 26 02.319   +17 48 21.60  6.0406 6.9433 153.7 21.6 .223  95
2021 03 05 04  09 26 01.012   +17 48 19.97  6.0406 6.9431 153.6 21.6 .225  95
2021 03 05 05  09 25 59.707   +17 48 18.34  6.0406 6.9428 153.6 21.6 .226  95
2021 03 05 06  09 25 58.402   +17 48 16.71  6.0406 6.9425 153.5 21.6 .227  95
2021 03 05 07  09 25 57.097   +17 48 15.07  6.0406 6.9422 153.5 21.6 .229  95
2021 03 05 08  09 25 55.793   +17 48 13.43  6.0407 6.9419 153.4 21.6 .230  95
2021 03 05 09  09 25 54.490   +17 48 11.79  6.0407 6.9417 153.4 21.6 .232  95
2021 03 05 10  09 25 53.187   +17 48 10.14  6.0407 6.9414 153.3 21.6 .233  95
2021 03 05 11  09 25 51.884   +17 48 08.49  6.0407 6.9411 153.3 21.6 .235  95
2021 03 05 12  09 25 50.583   +17 48 06.83  6.0407 6.9408 153.2 21.6 .236  95
2021 03 05 13  09 25 49.281   +17 48 05.17  6.0408 6.9405 153.2 21.6 .238  95
2021 03 05 14  09 25 47.980   +17 48 03.51  6.0408 6.9402 153.2 21.6 .239  95
2021 03 05 15  09 25 46.680   +17 48 01.85  6.0408 6.9400 153.1 21.6 .241  95
2021 03 05 16  09 25 45.380   +17 48 00.18  6.0408 6.9397 153.1 21.6 .242  95
2021 03 05 17  09 25 44.081   +17 47 58.50  6.0409 6.9394 153.0 21.6 .244  95
2021 03 05 18  09 25 42.782   +17 47 56.82  6.0409 6.9391 153.0 21.6 .245  95
2021 03 05 19  09 25 41.484   +17 47 55.14  6.0409 6.9388 152.9 21.6 .247  96
2021 03 05 20  09 25 40.186   +17 47 53.46  6.0409 6.9386 152.9 21.6 .248  96
2021 03 05 21  09 25 38.889   +17 47 51.77  6.0410 6.9383 152.8 21.6 .250  96
2021 03 05 22  09 25 37.592   +17 47 50.08  6.0410 6.9380 152.8 21.6 .251  96
2021 03 05 23  09 25 36.296   +17 47 48.38  6.0410 6.9377 152.7 21.6 .253  96
2021 03 06 00  09 25 35.001   +17 47 46.68  6.0410 6.9374 152.7 21.6 .254  96
2021 03 06 01  09 25 33.706   +17 47 44.98  6.0411 6.9372 152.6 21.6 .256  96
2021 03 06 02  09 25 32.411   +17 47 43.27  6.0411 6.9369 152.6 21.6 .257  96
2021 03 06 03  09 25 31.117   +17 47 41.56  6.0411 6.9366 152.6 21.6 .259  96
2021 03 06 04  09 25 29.824   +17 47 39.85  6.0412 6.9363 152.5 21.6 .260  96
2021 03 06 05  09 25 28.531   +17 47 38.13  6.0412 6.9360 152.5 21.6 .262  96
2021 03 06 06  09 25 27.239   +17 47 36.41  6.0412 6.9357 152.4 21.6 .263  96
2021 03 06 07  09 25 25.947   +17 47 34.68  6.0412 6.9355 152.4 21.6 .265  96
2021 03 06 08  09 25 24.656   +17 47 32.96  6.0413 6.9352 152.3 21.6 .266  96
2021 03 06 09  09 25 23.365   +17 47 31.22  6.0413 6.9349 152.3 21.6 .268  96
2021 03 06 10  09 25 22.075   +17 47 29.49  6.0413 6.9346 152.2 21.6 .270  96
2021 03 06 11  09 25 20.785   +17 47 27.75  6.0414 6.9343 152.2 21.6 .271  96
2021 03 06 12  09 25 19.496   +17 47 26.00  6.0414 6.9341 152.1 21.6 .273  96
2021 03 06 13  09 25 18.208   +17 47 24.26  6.0414 6.9338 152.1 21.6 .274  96
2021 03 06 14  09 25 16.920   +17 47 22.50  6.0415 6.9335 152.0 21.6 .276  96